"Pseudo-MPEC" for P10NEYp

Created 2019 Jun 6 15:07:19 UT using Find_Orb

Click here for an explanation of pseudo-MPECs

 
 Astrometry: 
     P10NEYp  C2019 05 08'OK##Astrometryt+g!9K*'U*41[mu=%I%fNnk'3LW9*435Ui('MF51
     P10NEYp  C2019 05 08c\Wredacted;wGlDCdy3$h;L3C9`TRjB@Yw/a$6%;nb:!_$a7X)-F51
     P10NEYp  C2019 05 08^=PwW**!JZ#3u\IQqWmf2Sj2n\Dxi(osYL#=M]Aa`.6BXkM)Ao4NF51
     P10NEYp ^C2019 05 15:BvD@e5^9;;WBxx]8-t5??bA]Lclick/1heref/Tb-N'g?YZ7269695
     P10NEYp ^C2019 05 15$wforg9p,explanationVr'9x6KdyY`-aMK._:E;5T+2Bx(NTU0n695

Station data:
(695) Kitt Peak  (N31.958398 W111.594670)  US/Arizona.
(F51) Pan-STARRS 1, Haleakala  (N20.707235 W156.255910)  US/Hawaii.
   Observers N. Primak, A. Schultz, S. Watters, J. Thiel, T. Goggia. Measurer
   PS1 Science Consortium. 1.8-m Ritchey-Chrétien + CCD.

Orbital elements:  P10NEYp
   Perihelion 2019 Sep 23.856432 +/- 404 TT = 20:33:15 (JD 2458750.356432)
Epoch 2019 May 15.0 TT = JDT 2458618.5   Earth MOID: 0.4288   Ma: 0.0756
M 309.51432929 +/- 90               (J2000 ecliptic)          AutoNEOCP
n   0.38288364 +/- 0.123            Peri.  152.54411 +/- 80
a   1.87827066 +/- 0.401            Node   134.78102 +/- 14
e   0.2425821 +/- 0.129             Incl.   24.16859 +/- 4.7
P   2.57/940.22d           H 20.4   G  0.15   U 11.4  SR
q 1.42263581 +/- 0.828    Q 2.33390550 +/- 0.838
From 5 observations 2019 May 8-15; mean residual 0".98
Residuals in arcseconds: 
190508 F51  .33+  .63+    190508 F51  .32-  .62-    190515 695  1.1-  1.8+    
190508 F51  .01-  .00     190515 695  1.1+  1.8-    

Ephemerides (geocentric):
Date (UTC) HH   RA              Dec         delta   r     elong  mag " sig PA
---- -- -- --  -------------   -----------  ------ ------ -----  --- ---- ---
2019 06 06 15  13 09 24.889   +34 42 31.71  1.0579 1.6035 101.3 23.0 3304  53
2019 06 06 16  13 09 26.237   +34 41 48.26  1.0580 1.6034 101.3 23.0 3314  53
2019 06 06 17  13 09 27.589   +34 41 04.78  1.0582 1.6033 101.3 23.0 3325  53
2019 06 06 18  13 09 28.945   +34 40 21.26  1.0583 1.6032 101.3 23.0 3336  53
2019 06 06 19  13 09 30.305   +34 39 37.71  1.0584 1.6030 101.3 23.0 3347  53
2019 06 06 20  13 09 31.669   +34 38 54.13  1.0586 1.6029 101.2 23.0 3357  53
2019 06 06 21  13 09 33.036   +34 38 10.51  1.0587 1.6028 101.2 23.0 3368  52
2019 06 06 22  13 09 34.407   +34 37 26.86  1.0588 1.6027 101.2 23.0 3379  52
2019 06 06 23  13 09 35.782   +34 36 43.17  1.0590 1.6026 101.2 23.0 3390  52
2019 06 07 00  13 09 37.161   +34 35 59.45  1.0591 1.6024 101.2 23.0 3400  52
2019 06 07 01  13 09 38.544   +34 35 15.70  1.0592 1.6023 101.1 23.1 3411  52
2019 06 07 02  13 09 39.931   +34 34 31.91  1.0594 1.6022 101.1 23.1 3422  52
2019 06 07 03  13 09 41.321   +34 33 48.09  1.0595 1.6021 101.1 23.1 3433  52
2019 06 07 04  13 09 42.715   +34 33 04.24  1.0596 1.6020 101.1 23.1 3444  52
2019 06 07 05  13 09 44.114   +34 32 20.35  1.0598 1.6018 101.1 23.1 3455  52
2019 06 07 06  13 09 45.516   +34 31 36.43  1.0599 1.6017 101.0 23.1 3466  52
2019 06 07 07  13 09 46.921   +34 30 52.48  1.0600 1.6016 101.0 23.1 3477  52
2019 06 07 08  13 09 48.331   +34 30 08.49  1.0602 1.6015 101.0 23.1 3488  52
2019 06 07 09  13 09 49.744   +34 29 24.47  1.0603 1.6014 101.0 23.1 3499  52
2019 06 07 10  13 09 51.162   +34 28 40.42  1.0604 1.6013 101.0 23.1 3510  52
2019 06 07 11  13 09 52.583   +34 27 56.33  1.0606 1.6011 100.9 23.1 3521  52
2019 06 07 12  13 09 54.007   +34 27 12.21  1.0607 1.6010 100.9 23.1 3532  52
2019 06 07 13  13 09 55.436   +34 26 28.05  1.0608 1.6009 100.9 23.1 3543  52
2019 06 07 14  13 09 56.869   +34 25 43.87  1.0610 1.6008 100.9 23.1 3554  52
2019 06 07 15  13 09 58.305   +34 24 59.65  1.0611 1.6007 100.9 23.1 3565  52
2019 06 07 16  13 09 59.745   +34 24 15.39  1.0612 1.6005 100.9 23.1 3576  52
2019 06 07 17  13 10 01.189   +34 23 31.11  1.0614 1.6004 100.8 23.1 3587  52
2019 06 07 18  13 10 02.637   +34 22 46.79  1.0615 1.6003 100.8 23.1 3598  52
2019 06 07 19  13 10 04.088   +34 22 02.43  1.0616 1.6002 100.8 23.1 3609  52
2019 06 07 20  13 10 05.544   +34 21 18.05  1.0618 1.6001 100.8 23.1 3620  52
2019 06 07 21  13 10 07.003   +34 20 33.63  1.0619 1.6000 100.8 23.1 3631  52
2019 06 07 22  13 10 08.466   +34 19 49.18  1.0620 1.5998 100.7 23.1 3642  52
2019 06 07 23  13 10 09.932   +34 19 04.69  1.0622 1.5997 100.7 23.1 3654  52
2019 06 08 00  13 10 11.403   +34 18 20.18  1.0623 1.5996 100.7 23.1 3665  52
2019 06 08 01  13 10 12.877   +34 17 35.63  1.0624 1.5995 100.7 23.1 3676  52
2019 06 08 02  13 10 14.355   +34 16 51.04  1.0626 1.5994 100.7 23.1 3687  52
2019 06 08 03  13 10 15.837   +34 16 06.43  1.0627 1.5993 100.6 23.1 3699  52
2019 06 08 04  13 10 17.323   +34 15 21.78  1.0628 1.5991 100.6 23.1 3710  52
2019 06 08 05  13 10 18.812   +34 14 37.10  1.0630 1.5990 100.6 23.1 3721  52
2019 06 08 06  13 10 20.305   +34 13 52.38  1.0631 1.5989 100.6 23.1 3732  52
2019 06 08 07  13 10 21.802   +34 13 07.64  1.0632 1.5988 100.6 23.1 3744  52
2019 06 08 08  13 10 23.303   +34 12 22.86  1.0634 1.5987 100.5 23.1 3755  52
2019 06 08 09  13 10 24.807   +34 11 38.05  1.0635 1.5985 100.5 23.1 3766  52
2019 06 08 10  13 10 26.316   +34 10 53.20  1.0636 1.5984 100.5 23.1 3778  52
2019 06 08 11  13 10 27.828   +34 10 08.33  1.0638 1.5983 100.5 23.1 3789  52
2019 06 08 12  13 10 29.343   +34 09 23.42  1.0639 1.5982 100.5 23.1 3801  52
2019 06 08 13  13 10 30.863   +34 08 38.48  1.0640 1.5981 100.4 23.1 3812  52
2019 06 08 14  13 10 32.386   +34 07 53.50  1.0642 1.5980 100.4 23.1 3823  52